Flag for Germany Weather past 2 weeks in Norden, Lower Saxony, Germany

Now
62 °F

Low clouds.


Feels Like: 62 °F
Forecast: 58 / 64 °F
Wind: 5 mph from Southwest

Location: Norderney

Current Time: Oct 1, 2014 at 9:24:23 PM

Latest Report: Oct 1, 2014 at 9:00 PM


Visibility: 2 mi

Pressure: 30.29 "Hg

Humidity: 95%

Dew point: 60 °F

Location of NordenLocation

Historic Weather in Norden — Graph

°F

Norden temperature yesterday

Maximum temperature yesterday: 64 °F (at 12:00 PM)
Minimum temperature yesterday: 60 °F (at 7:00 AM)
Average temperature yesterday: 62 °F

Past Weeks' High & Low Weather Summary

 TemperatureHumidityPressure
High74 °F (Sep 17, 2:00 PM)96% (Sep 26, 10:00 AM)30.36 "Hg (Sep 26, 10:00 AM)
Low55 °F (Sep 24, 8:00 AM)54% (Sep 23, 10:00 AM)29.75 "Hg (Sep 24, 6:00 PM)
Average61 °F79%30.06 "Hg
* Reported Sep 16 8:00 PM — Oct 1 8:00 PM, Norden, Weather by CustomWeather, © 2014

Note: Actual official high and low records may vary slightly from our data, if they occured in-between our weather recording intervals... More about our weather records

Advertising

Norden weather history for previous 24 hours

 ConditionsComfort  
Time TempWeatherWind HumidityBarometerVisibility
8:00 PM
Oct 1
62 °FRain. Low clouds.6 mph96%30.29 "Hg1 mi
7:00 PM64 °FOvercast.5 mph81%30.27 "Hg5 mi
6:00 PM64 °FFog.5 mph81%30.27 "Hg4 mi
5:00 PM64 °FFog.3 mph80%30.27 "Hg4 mi
4:00 PM64 °FPartly sunny.3 mph79%30.27 "Hg4 mi
3:00 PM65 °FPartly sunny.5 mph76%30.27 "Hg3 mi
2:00 PM62 °FFog.6 mph82%30.28 "Hg3 mi
1:00 PM60 °FFog.5 mph90%30.28 "Hg2 mi
12:00 PM58 °FFog.6 mph92%30.28 "Hg1 mi
11:00 AM59 °FFog.7 mph92%30.27 "Hg1 mi
10:00 AM58 °FFog.7 mph94%30.26 "Hg1 mi
9:00 AM57 °FFog.5 mph96%30.26 "Hg1 mi
8:00 AM58 °FPartly sunny.6 mph94%30.25 "Hg2 mi
7:00 AM58 °FFog.6 mph94%30.25 "Hg2 mi
6:00 AM58 °FFog.5 mph95%30.25 "Hg2 mi
5:00 AM58 °FFog.5 mph95%30.26 "Hg1 mi
4:00 AM58 °FFog.5 mph94%30.26 "Hg1 mi
3:00 AM60 °FFog.3 mph92%30.26 "Hg2 mi
2:00 AM59 °FFog.3 mph91%30.26 "Hg2 mi
1:00 AM59 °FFog.5 mph90%30.25 "Hg2 mi
12:00 AM60 °FFog.6 mph90%30.25 "Hg2 mi
11:00 PM
Sep 30
60 °FFog.5 mph90%30.24 "Hg2 mi
10:00 PM62 °FFog.6 mph87%30.24 "Hg2 mi
9:00 PM62 °FFog.6 mph85%30.24 "Hg2 mi
Weather by CustomWeather, © 2014

See weather overviewHow to use our weather pages